Theta_e
350 353 356 359 364 361 362 359 350 348 347 344 340 340 345 349 355 354 338 337 338 340 342 333 325 325 328 336 337 338 341 342 341 339 343 338 340 340 341 341 341 341 341 339 338 338 333 336 334
354 353 358 359 365 366 364 353 351 348 346 341 344 346 352 356 345 340 338 336 340 343 344 345 333 332 330 333 339 339 338 341 344 342 341 340 340 340 341 342 341 340 341 335 333 330 336 332 334
352 354 359 360 360 366 364 356 354 348 341 350 351 350 352 350 341 337 336 338 343 344 345 344 342 339 337 343 337 338 338 334 338 343 342 337 340 340 340 341 336 341 341 332 329 326 326 335 335
354 358 356 361 361 359 359 356 351 350 344 347 351 353 349 348 338 339 336 341 343 344 346 340 342 335 335 340 340 338 336 335 333 341 341 336 340 340 340 339 341 341 330 330 328 326 335 335 337
357 357 358 358 360 357 355 354 353 353 350 348 351 352 346 341 342 339 339 341 344 344 347 348 340 336 339 341 342 341 340 338 332 338 341 337 341 340 340 339 337 339 335 336 335 335 337 339 339
355 353 358 360 360 356 354 353 353 353 351 350 351 349 347 344 341 340 340 343 344 346 348 348 336 340 340 340 341 340 340 340 334 339 339 337 341 341 339 339 337 340 341 337 333 331 338 339 339
356 355 357 355 357 358 356 353 352 352 352 351 349 349 346 342 341 340 343 346 347 347 348 347 348 343 342 341 342 342 342 341 338 342 341 339 342 340 340 341 339 338 339 337 340 341 342 341 341
353 354 355 354 355 357 354 353 352 352 353 348 347 346 346 341 342 343 344 346 347 347 347 347 348 350 347 346 346 343 342 341 343 343 340 336 339 340 338 339 340 341 339 339 339 342 342 341 342
352 356 355 354 354 356 352 354 353 352 350 351 349 344 340 343 345 345 347 347 348 347 345 346 348 349 351 347 344 342 341 341 342 338 337 336 337 336 336 338 339 341 339 336 339 341 340 340 342
352 353 353 351 351 353 353 353 352 353 352 352 350 345 343 343 344 346 346 347 347 346 345 346 347 347 351 351 347 345 343 345 342 342 337 336 340 338 339 339 341 340 341 334 337 338 338 345 348
348 352 350 350 352 351 352 353 352 352 354 352 351 347 344 343 344 345 346 348 346 345 344 346 349 348 349 349 349 348 345 348 347 339 342 340 339 340 339 339 340 341 338 342 335 334 335 339 344
350 347 347 349 350 352 353 353 352 352 353 351 352 347 344 344 344 342 345 346 345 345 345 346 347 349 349 349 349 348 348 348 348 349 345 339 341 338 341 341 340 342 342 346 344 338 334 333 338
349 348 348 348 349 352 352 353 354 353 353 351 351 347 344 342 343 344 345 344 342 345 345 346 346 347 349 350 349 349 349 349 349 347 348 349 346 340 339 339 343 345 348 347 346 345 342 341 343
347 347 349 351 349 352 354 353 352 353 352 352 351 349 344 342 344 346 344 342 342 343 344 345 346 344 347 349 348 349 351 350 349 351 349 342 347 342 342 339 344 345 346 345 344 343 347 343 342
347 352 354 352 350 353 353 354 355 352 352 352 351 350 345 343 344 344 342 341 342 342 342 344 346 347 344 348 348 352 351 351 350 348 345 344 345 344 344 344 343 346 346 341 342 339 343 347 346
348 351 356 355 353 352 350 359 353 352 351 352 351 351 348 347 344 342 344 338 339 341 341 342 344 346 347 350 350 351 351 351 351 352 347 346 345 345 345 344 343 347 346 347 346 345 347 347 347
344 346 350 356 352 352 352 359 353 351 351 350 351 350 349 347 343 346 345 341 337 339 342 343 346 347 349 345 350 349 349 348 349 349 348 347 346 347 348 349 348 342 347 345 345 346 346 346 348
342 342 343 351 352 352 355 358 353 350 349 349 351 350 349 345 345 348 347 344 335 337 340 344 346 349 348 350 344 351 351 351 351 346 346 345 346 347 346 349 347 344 347 347 346 345 346 346 347
343 342 342 342 344 352 356 357 353 351 349 348 349 349 349 347 345 344 343 346 340 337 338 341 343 349 349 349 350 349 348 347 348 349 345 346 345 347 347 348 346 345 345 346 343 344 346 346 347
340 343 342 342 344 353 355 355 354 352 350 347 347 348 347 347 347 346 346 348 345 340 339 339 344 348 342 349 349 349 348 346 346 348 347 346 346 346 347 345 348 347 348 345 345 346 347 344 341
336 337 341 346 349 352 355 358 358 354 351 349 347 346 347 347 347 348 348 349 348 343 344 341 347 349 343 348 350 343 345 339 344 344 350 345 345 346 344 344 346 347 346 347 346 347 346 342 340
335 334 339 348 351 350 352 355 361 358 356 352 348 346 346 347 347 347 348 348 347 347 348 347 346 348 346 343 349 351 349 346 346 347 351 351 345 346 345 346 346 346 346 347 346 347 346 343 343
338 337 339 345 346 347 355 351 359 357 359 356 350 347 345 345 346 346 346 346 346 346 347 348 349 349 344 342 342 350 347 348 347 347 347 344 344 345 345 346 347 345 341 342 348 346 345 346 346
338 342 345 345 344 346 346 348 350 356 356 354 350 348 346 344 344 345 346 345 345 345 345 343 347 344 343 340 339 339 346 349 347 346 346 349 351 353 345 344 345 345 340 343 347 344 344 343 345
340 343 339 340 342 342 342 348 344 351 350 351 349 347 347 345 344 344 344 344 345 345 345 344 344 345 344 340 338 337 339 343 348 348 346 344 346 351 349 344 344 345 343 340 342 342 340 343 344
339 337 335 335 335 338 345 342 349 347 347 347 347 346 346 346 345 344 344 343 343 343 344 344 344 345 345 340 339 338 339 346 348 347 347 346 343 344 344 342 344 344 344 340 339 344 345 347 345
336 335 334 333 335 336 339 340 346 345 347 349 348 347 348 348 347 346 345 344 343 343 342 343 343 344 339 340 339 338 338 339 346 347 342 345 344 343 338 338 343 345 345 343 337 340 345 346 349
332 334 335 336 338 338 338 337 339 348 349 352 350 350 350 350 350 349 347 346 346 344 344 344 345 345 340 341 345 343 344 339 338 337 337 338 338 335 336 335 342 345 346 347 344 344 344 347 349
334 334 335 335 335 335 335 336 340 347 348 350 350 350 351 351 351 350 349 349 348 347 346 346 346 348 348 345 346 346 346 345 341 340 339 340 337 340 342 342 342 342 344 347 347 344 345 346 344
335 335 335 336 336 336 336 337 344 344 343 346 348 348 348 350 350 351 351 351 351 350 349 348 347 348 348 348 348 347 344 342 343 341 341 337 341 343 342 342 343 344 346 349 348 345 344 346 350
Wind_Speed
7 5 4 4 5 4 7 7 13 16 14 7 17 5 7 9 5 5 19 17 21 19 16 15 14 13 13 13 11 10 9 8 8 9 10 10 11 11 11 14 14 15 17 16 17 18 19 19 18
7 5 3 3 3 7 6 13 14 9 12 22 11 11 4 6 6 17 23 22 20 18 15 13 13 11 11 11 10 9 7 8 7 8 9 10 12 12 13 14 15 16 17 15 16 16 17 16 16
6 4 5 3 1 5 8 9 13 16 23 12 7 7 2 3 9 23 20 24 20 18 15 13 12 9 8 8 9 8 6 6 7 7 9 10 11 12 14 16 16 16 15 14 14 15 16 15 15
2 3 4 3 9 11 12 13 17 16 17 4 10 7 5 4 23 16 25 23 19 17 14 12 10 8 7 7 7 7 6 6 7 7 8 10 10 12 13 15 15 14 14 15 14 16 16 14 14
3 5 3 3 10 12 9 14 13 13 12 11 5 7 11 15 13 24 23 21 18 16 12 11 9 8 5 5 5 6 6 6 7 7 8 11 11 10 11 10 12 12 12 14 12 15 15 15 14
5 4 3 7 11 11 10 10 9 9 12 11 12 13 8 13 23 24 22 19 17 14 12 8 8 6 4 4 4 6 7 7 8 7 9 11 11 10 10 10 10 10 12 11 12 13 12 11 11
4 1 6 11 12 10 11 9 7 8 11 8 14 8 12 20 23 23 21 18 16 14 12 8 4 4 3 3 6 9 9 9 10 8 12 12 10 10 9 9 9 8 10 12 13 11 10 10 8
5 3 5 6 10 10 11 8 7 7 6 13 12 7 14 26 24 22 20 17 16 13 11 10 9 5 4 3 7 12 12 12 11 13 18 18 13 10 10 9 7 6 7 9 9 9 10 8 9
3 4 7 6 8 8 13 9 5 5 14 4 3 10 25 28 27 22 20 17 15 14 11 9 8 8 7 12 15 15 15 14 13 15 14 14 10 11 8 7 7 6 5 6 8 8 7 9 8
3 3 7 5 5 6 12 8 11 9 13 8 10 15 27 28 26 24 21 19 16 15 12 10 10 9 9 11 13 13 13 12 13 14 13 12 8 9 8 2 7 9 5 6 7 7 7 9 7
2 6 4 5 6 5 12 8 7 12 8 12 18 25 29 29 25 22 20 18 17 15 13 11 12 11 10 10 10 9 10 9 9 13 11 9 8 6 7 5 6 7 8 7 6 5 5 5 6
3 2 1 4 5 7 9 10 3 4 9 10 16 25 31 30 26 23 20 19 17 16 14 12 11 12 11 9 8 12 9 9 8 8 8 8 7 8 6 6 5 6 6 8 5 4 3 3 4
3 5 1 4 4 8 9 5 8 5 3 12 21 25 28 28 24 22 19 18 17 16 14 13 12 12 11 11 10 8 8 8 8 7 8 8 7 9 8 7 6 6 6 4 5 4 5 4 4
7 4 2 6 9 10 10 8 3 6 8 15 21 25 25 26 24 22 20 19 17 16 15 14 13 15 12 11 11 10 8 7 8 7 7 9 8 8 6 9 6 5 6 5 6 5 4 5 4
4 4 8 10 13 9 12 8 9 10 11 15 20 21 24 23 23 22 20 19 19 17 16 16 14 13 13 11 9 7 5 4 4 3 3 4 5 4 7 6 9 7 8 6 3 5 5 5 7
4 5 5 9 9 8 7 7 9 11 12 15 18 22 23 23 23 20 19 19 17 19 16 15 14 13 11 8 7 5 4 2 3 2 0 2 2 3 2 5 8 9 6 5 6 5 7 7 9
4 4 4 8 7 6 8 7 10 11 10 13 18 21 20 22 22 20 18 21 19 18 18 16 14 12 10 9 6 6 4 2 2 2 2 1 2 3 4 4 4 7 6 5 5 6 4 5 5
5 3 2 2 8 8 6 7 12 13 11 11 19 21 21 24 24 22 21 15 21 19 17 16 13 12 12 9 9 5 4 3 2 3 1 2 4 5 3 3 4 5 7 5 6 6 2 4 6
8 7 4 4 3 7 6 10 13 15 13 13 18 21 21 23 24 24 23 18 19 19 19 19 16 15 12 10 8 6 5 5 4 3 2 2 3 4 5 0 1 4 6 6 7 6 4 5 6
5 5 4 4 3 7 5 8 12 14 14 16 17 21 22 24 24 24 24 22 22 22 20 20 19 18 17 11 8 6 5 4 5 4 4 4 2 2 3 2 1 2 4 5 8 8 7 8 7
8 4 5 3 9 4 6 9 13 13 13 15 17 19 23 24 27 26 24 26 23 23 21 21 20 18 16 14 10 9 6 4 3 5 5 3 2 3 3 2 2 5 3 5 2 7 8 9 12
10 5 3 9 10 1 10 3 15 16 16 16 19 21 22 26 26 26 26 28 26 23 21 20 21 20 17 14 12 11 6 3 3 3 5 5 4 4 4 5 6 6 5 5 4 4 6 7 9
5 2 4 7 8 4 11 6 9 15 15 16 20 21 21 24 26 28 27 27 25 25 23 22 22 20 18 16 17 11 10 7 4 4 6 6 7 5 5 5 6 8 9 6 4 4 6 7 7
4 6 6 5 5 6 7 5 9 11 17 18 21 22 22 23 25 26 27 26 26 24 26 26 21 24 21 17 17 19 15 10 7 6 4 4 5 5 3 3 7 6 4 4 6 8 9 9 8
11 12 3 4 5 7 3 5 6 9 5 18 21 23 23 24 25 26 28 29 28 28 26 25 29 24 23 21 18 19 18 17 12 9 6 6 5 7 6 6 6 4 5 2 5 6 7 12 10
12 8 7 4 2 6 4 3 6 6 8 15 24 25 24 24 25 26 26 27 28 28 28 27 23 24 24 25 24 20 19 15 13 13 11 9 9 7 9 8 6 4 4 4 1 7 8 10 12
8 8 6 6 3 7 4 3 10 7 8 13 25 26 25 25 24 24 24 24 25 26 27 26 24 23 23 22 23 23 21 20 17 15 17 13 11 10 12 9 10 9 6 7 8 9 9 11 11
8 3 7 6 3 4 4 4 4 6 12 13 19 25 26 25 23 22 22 22 23 23 24 24 24 24 23 22 21 21 20 21 20 19 19 17 16 16 12 12 12 12 10 11 15 16 14 12 10
6 9 7 7 5 10 8 3 10 7 10 15 18 22 25 25 25 23 22 20 20 19 20 23 24 23 22 23 22 21 20 19 18 20 20 17 15 14 10 13 15 15 15 13 15 15 15 14 14
8 10 8 6 3 3 7 6 6 4 6 13 18 20 23 25 24 23 22 21 21 21 21 20 20 20 19 18 19 19 20 21 19 19 18 15 13 14 12 16 17 16 15 14 15 15 15 15 14
Wind_Direction
143 151 197 214 224 209 88 83 108 113 122 129 135 152 97 26 349 61 142 144 148 144 150 148 146 141 142 139 137 129 122 114 103 105 117 108 101 102 109 115 114 115 112 112 116 109 104 101 98
179 189 218 245 249 139 89 116 115 115 124 132 121 121 108 78 60 129 142 147 147 145 144 149 139 139 144 150 146 141 140 127 123 127 122 119 106 105 106 113 112 115 119 116 118 112 109 104 102
184 185 247 265 231 78 112 128 114 114 138 127 114 90 47 62 122 137 148 147 144 145 143 167 140 140 143 153 158 160 159 146 128 130 128 126 114 111 109 111 108 117 117 115 118 116 114 106 102
226 222 223 252 101 76 114 128 126 129 150 132 129 84 78 142 141 144 147 147 145 145 144 154 143 142 150 153 155 161 162 162 140 133 133 136 124 120 118 116 116 112 116 115 115 122 116 110 106
245 251 207 117 92 106 112 126 143 142 148 152 161 96 111 134 147 146 149 147 148 144 152 146 148 148 162 164 172 165 161 158 150 138 135 140 129 121 122 120 122 120 119 123 120 124 118 112 105
250 266 113 97 95 117 125 139 133 131 137 137 122 114 110 148 148 151 149 147 147 144 140 159 151 154 157 173 166 161 160 153 142 134 132 139 127 120 122 118 123 124 129 132 127 127 120 113 103
302 293 64 86 108 110 137 137 137 137 155 152 144 104 134 150 154 151 150 149 147 147 148 143 134 144 136 174 171 162 153 139 126 129 126 129 120 114 110 107 115 121 133 132 131 124 113 116 114
302 279 133 93 88 102 134 150 108 135 101 131 144 151 166 159 155 157 152 156 148 150 150 145 139 143 120 96 148 150 139 129 126 127 135 153 151 132 125 114 116 127 138 142 128 114 104 101 109
309 224 87 81 73 124 146 128 101 107 136 128 151 146 155 163 157 154 159 157 153 152 152 142 127 115 103 95 114 127 128 130 123 131 142 154 162 153 149 139 149 126 144 159 141 127 113 96 105
279 27 52 47 70 116 160 141 140 149 150 127 124 134 154 159 159 163 162 162 158 157 151 147 135 127 113 116 120 122 128 131 134 143 147 158 159 171 185 122 151 141 159 162 165 139 120 103 114
355 42 62 84 27 159 155 143 145 144 175 161 149 150 158 163 167 169 163 164 161 157 155 150 145 136 127 132 108 117 121 125 134 145 141 159 158 168 185 156 150 153 157 142 154 158 156 136 125
253 38 34 104 61 131 148 135 132 169 55 162 161 160 162 168 171 172 168 167 162 160 155 155 146 143 141 138 136 137 138 140 136 159 147 159 159 161 163 177 157 141 149 142 155 164 177 157 146
307 40 177 157 117 119 130 130 98 71 80 152 159 163 169 172 172 172 170 168 165 162 161 157 152 143 140 130 141 140 140 131 151 155 173 165 182 173 173 176 175 163 147 164 160 177 177 155 162
348 314 263 192 161 136 129 124 180 82 124 147 159 165 173 174 174 169 173 170 170 165 164 163 153 150 143 141 139 139 140 146 134 157 179 181 176 183 161 182 183 182 173 189 188 175 191 184 188
289 147 126 109 155 153 140 102 92 118 131 142 163 168 173 177 177 177 175 173 172 167 165 167 162 162 156 157 153 153 156 160 201 149 160 152 174 186 194 186 164 194 194 199 210 221 215 212 213
213 216 167 137 154 154 237 105 133 140 139 154 166 169 175 179 179 181 182 176 174 172 170 170 167 169 173 181 178 172 177 180 220 233 187 154 139 130 138 193 180 188 191 197 211 234 207 216 207
205 101 108 156 193 163 231 120 155 159 154 160 167 175 177 178 182 183 180 193 183 168 176 172 174 174 183 192 190 195 219 172 80 140 151 209 93 75 128 177 192 193 198 205 223 242 208 216 193
326 339 119 155 168 205 181 115 161 169 162 171 173 180 183 183 189 190 188 187 192 186 186 178 186 190 197 202 203 204 214 238 289 350 108 123 82 59 75 180 199 196 207 212 224 244 216 113 184
303 279 251 179 165 202 204 151 170 174 171 172 181 180 187 191 189 191 193 192 191 193 193 191 196 200 201 209 204 214 220 249 263 281 293 196 93 59 46 135 276 205 220 203 236 234 243 171 200
280 242 214 134 182 232 168 160 166 181 185 180 188 190 190 189 195 200 203 200 195 196 197 199 200 203 208 212 212 214 227 247 245 244 245 253 270 303 2 3 270 271 228 244 251 232 215 231 224
111 9 158 127 156 214 183 179 184 186 194 185 191 196 198 195 193 196 200 198 197 198 198 200 202 207 212 206 215 227 241 262 278 268 264 264 266 294 337 300 303 317 306 272 273 232 241 230 244
81 12 181 158 196 134 211 28 190 188 197 196 193 195 198 200 200 199 199 199 200 201 203 204 210 214 218 219 221 232 230 245 260 264 253 260 276 310 331 310 296 280 295 283 271 250 251 251 252
29 191 187 193 227 235 179 257 100 180 199 198 200 194 198 198 201 200 201 202 203 201 204 205 211 215 217 233 226 238 250 251 257 260 268 266 277 301 307 293 326 329 282 246 268 274 278 258 250
163 158 157 193 261 231 57 273 158 178 216 196 189 191 192 196 199 202 203 204 204 204 216 215 213 220 224 234 245 243 238 244 244 265 269 286 284 290 298 307 3 356 335 288 275 283 273 268 263
220 221 181 226 200 44 73 242 22 183 186 185 182 185 188 191 194 199 201 204 207 207 210 208 219 223 230 239 246 247 256 250 249 259 284 271 289 285 300 305 335 345 10 341 336 260 242 262 262
214 274 304 248 285 61 143 303 90 81 156 175 176 181 183 187 193 197 200 202 205 208 211 212 218 223 229 237 242 243 249 241 243 253 253 278 270 277 281 280 291 317 327 314 30 330 272 264 257
160 231 339 282 198 261 75 135 131 156 148 183 175 177 182 187 191 194 197 200 203 206 210 213 214 219 224 229 236 241 246 245 239 244 265 272 269 267 290 278 274 271 264 270 262 285 285 247 250
270 355 217 209 238 293 95 288 56 150 171 174 177 181 184 187 189 190 194 197 202 205 208 212 216 221 231 229 229 236 237 245 250 259 267 265 263 267 264 268 269 267 261 252 258 267 268 273 256
168 217 230 309 293 308 287 30 65 110 174 179 180 189 188 189 192 192 193 196 199 200 206 210 214 217 222 225 222 226 229 235 249 254 262 265 261 258 255 270 270 265 267 263 256 258 258 257 272
289 299 283 267 215 252 310 315 95 91 167 173 184 189 193 190 190 190 193 196 202 202 203 205 209 213 216 218 220 224 238 239 243 250 253 253 243 242 262 276 264 262 260 263 264 253 256 261 255